{"data":{"norad_id":68266,"epoch":"2026-05-24T15:53:00.922272Z","epoch_age_seconds":100207,"freshness":"FRESH","line1":"1 68266U 26055E   26144.66181623  .00010707  00000+0  31730-3 0  9997","line2":"2 68266  53.1579 325.6016 0000544 130.3612 229.7439 15.35408488 11578","mean_motion":15.35408488,"eccentricity":5.44e-5,"inclination_deg":53.1579,"raan_deg":325.6016,"arg_perigee_deg":130.3612,"mean_anomaly_deg":229.7439,"bstar":0.0003173,"rev_number":1157,"period_min":93.786116935938,"perigee_km":459.33546337379,"apogee_km":460.07942084909,"semimajor_km":6837.8444421114,"source":"CELESTRAK","updated_at":"2026-05-25T13:38:21.890707Z"}}